Back to catalog

COSMOS 2251 DEB

AliveLEO
NORAD 34304·DEBRIS·🇷🇺 Russia

Launched Jun 16, 1993 from Plesetsk Cosmodrome

Loading…

Next Passes (next 24 hours)

TLE

FreshSource: Space-Track

Epoch: Sep 14, 2026, 14:09 UTC

1 34304U 93036NA  26257.59000181  .00001507  00000-0  44862-3 0  9991
2 34304  74.0132 332.9345 0125387  43.5715  23.7304 14.39526395912641

Track COSMOS 2251 DEB in real time with AllMySat

Download on the App Store